User: anonymous   Login
Location: Unspecified
(0.0000°N, 0.0000°E)
Time: 19:00:21
(UTC+00:00)
Language:

KUIPER-00115 - Orbit

View from above orbital plane
View from above orbital plane
View from above satellite
View from above satellite

Ground track
Ground track

The orbit is defined by the following mean orbital elements,

1 65152U          26145.51555133 +.00000000 +00000-0 +12704-2 0 00004
2 65152  51.8978 188.3642 0000070 138.6726 221.4242 14.79983089    06
Epoch (UTC): 25 May 2026 12:22:23
Eccentricity: 0.0000070
inclination: 51.8978°
perigee height: 629 km
apogee height: 629 km
right ascension of ascending node: 188.3642°
argument of perigee: 138.6726°
revolutions per day: 14.79983089
mean anomaly at epoch: 221.4242°

The dashed part of the orbit path shows where the satellite is in the earth's shadow,  

DLR